カタログに戻る

COSMOS 2251 DEB

運用中LEO
NORAD 35898·DEBRIS·🇷🇺 Russia

打ち上げ Jun 16, 1993 から Plesetsk Cosmodrome

Loading…

次のパス (今後24時間)

TLE

古いSource: Space-Track

元期: Sep 6, 2026, 07:41 UTC

1 35898U 93036AUM 26249.32045315  .00003207  00000-0  25639-3 0  9990
2 35898  73.9886 114.7284 0077496 190.9348 293.0102 14.98345522708139

AllMySatでCOSMOS 2251 DEBをリアルタイム追跡

Download on the App Store